RADUGA 24 [-]

Last updated on June 23, 2019, 3:41 a.m. UTC

1 20367U 89098A   19173.86213260 -.00000318  00000-0  00000+0 0  9993
2 20367  14.9628 354.9394 0003018 327.4067 357.0901  1.00314325107459
UTC
Height (km)
Latitude
Longitude
Inclination
Orbital Period
UTC large
Height (km)
Speed (km/s)
/
Latitude / Longitude
Inclination (degrees)
Orbital Period (minutes)
Azimuth
Elevation
Range (km)
Doppler Factor
iOS Compass Heading
iOS Angle

Next 30 passes for location: Hong Kong

Rise time Rise Azimuth (degrees) Set time Set Azimuth (degrees) Duration Max altitude (degrees)

No matching passes for this satellites